Content
SEND FEEDBACK

Daily
Averages
Monthly
Summary
United States of America

HICKAM VILLAGE, HAWAII


Home > North America > United States > Hawaii
Elevation: 4 feet     Latitude: 21 20N     Longitude: 157 55W

WEATHER
 
SELECT A DAY
Number of Records: 181,166;   Date Range: 1/1/95 - 10/20/14
 
SHARE

PRINT THIS DATA

[ ← Previous Day ]
WEATHER ALMANAC - JANUARY 3, 2013
[ Next Day → ]
[ °C ]   °F
Weather ElementAverageHighLow
Temperature71.5 °F78.1 °F (3:53 pm)64.4 °F (8:17 am)
Dewpoint65.1 °F68.5 °F (9:53 am)60.8 °F (8:17 am)
Humidity80.6 %88 % (2:06 am)71 % (3:53 pm)
Barometer30.04 in30.09 in (8:53 pm)30.00 in (4:53 am)
Wind Speed9 mph20.7 mph (11:53 pm)
Wind Gust29.9 mph (8:53 pm)
Weather ElementAverage
Visibility9.4 mi
Wind DirectionNE (41.8 °)

Weather ElementTotal
Precipitation0.05 in
Cooling Degree Days6.3 (Base 65)
Growing Degree Days21.3 (Base 50)
Averaged from 28 records on January 3, 2013
WEATHER CONDITIONS BREAKOUT
WIND DIRECTION BREAKOUT
WEATHER BY HOUR - JANUARY 3, 2013
[ °C ]   °F
Local TimeTemperatureDewpointHumidityBarometerVisibilityWind DirectionWind SpeedGust SpeedPrecipitationEventsConditions
12:53 AM70.9 °F66.0 °F85 %30.04 in10.0 miCalm0.00 inRainLight Rain
1:53 AM70.3 °F65.3 °F84 %30.03 in4.0 miCalm0.02 inRainHeavy Rain
2:06 AM69.8 °F66.2 °F88 %30.03 in10.0 miWest (280°)3.5 mph0.00 inRainLight Rain
2:53 AM70.0 °F66.0 °F87 %30.01 in10.0 miCalm0.02 inRainLight Rain
3:53 AM70.0 °F65.1 °F85 %30.01 in9.0 miCalm0.00 inRainLight Rain
4:53 AM69.6 °F65.1 °F86 %30.00 in9.0 miNNE (20°)4.6 mph0.01 inRainLight Rain
5:53 AM69.4 °F65.1 °F86 %30.01 in10.0 miNorth (10°)5.8 mph0.00 inRainLight Rain
6:53 AM68.7 °F65.1 °F88 %30.01 in10.0 miNNE (30°)8.1 mph0.00 inMostly Cloudy
7:53 AM70.3 °F65.5 °F85 %30.04 in10.0 miNNE (30°)8.1 mphMostly Cloudy
8:17 AM64.4 °F60.8 °F88 %30.05 in2.0 miNNE (30°)6.9 mphMostly Cloudy
8:19 AM64.4 °F60.8 °F88 %30.05 in10.0 miNE (40°)8.1 mph16.1 mphMostly Cloudy
8:41 AM64.4 °F60.8 °F88 %30.05 in10.0 miNorth (10°)4.6 mphMostly Cloudy
8:53 AM70.9 °F66.6 °F86 %30.06 in10.0 miNE (40°)3.5 mphMostly Cloudy
9:53 AM73.6 °F68.5 °F84 %30.07 in10.0 miNE (50°)6.9 mph0.00 inRainLight Rain
10:53 AM73.9 °F68.5 °F83 %30.06 in10.0 miENE (60°)11.5 mph21.9 mph0.00 inMostly Cloudy
11:53 AM75.9 °F66.9 °F74 %30.04 in10.0 miNE (50°)9.2 mphMostly Cloudy
12:53 PM75.7 °F67.8 °F76 %30.02 in10.0 miNE (50°)16.1 mphMostly Cloudy
1:53 PM75.0 °F65.3 °F72 %30.00 in10.0 miNNE (30°)11.5 mphMostly Cloudy
2:53 PM75.0 °F65.3 °F72 %30.00 in10.0 miENE (60°)12.7 mph23.0 mphMostly Cloudy
3:53 PM78.1 °F68.2 °F71 %30.01 in10.0 miNNE (30°)11.5 mph21.9 mph0.00 inMostly Cloudy
4:53 PM77.2 °F67.1 °F71 %30.03 in10.0 miENE (60°)13.8 mph19.6 mphMostly Cloudy
5:53 PM73.0 °F66.2 °F79 %30.04 in10.0 miNE (40°)10.4 mph19.6 mphMostly Cloudy
6:53 PM71.6 °F65.7 °F81 %30.06 in10.0 miNNE (30°)10.4 mph0.00 inRainLight Rain
7:53 PM71.2 °F64.4 °F79 %30.08 in10.0 miNE (40°)15.0 mph23.0 mph0.00 inRainLight Rain
8:53 PM71.2 °F62.6 °F74 %30.09 in10.0 miNE (40°)15.0 mph29.9 mph0.00 inMostly Cloudy
9:53 PM72.3 °F63.0 °F72 %30.09 in10.0 miNE (40°)15.0 mph27.6 mph0.00 inMostly Cloudy
10:53 PM72.1 °F63.1 °F73 %30.09 in10.0 miNE (50°)19.6 mph26.5 mph0.00 inMostly Cloudy
11:53 PM72.0 °F62.4 °F72 %30.09 in10.0 miNE (50°)20.7 mph29.9 mph0.00 inMostly Cloudy
Hourly data recorded from PHNL, located miles away from Hickam Village, Hawaii







STORIES FROM OUR PARTNERS